Starlink 35755

operational
NORAD ID: 67163 Int'l Des: 2025-303 Owner: SPXS Country: US Constellation: starlink
LEOCIRCULAR

Über Starlink 35755

Beschreibung wird geladen...

Live-Position

3D-Globus wird geladen...

Nächste Überflüge

Höhenverlauf

Altitude vs Time

uPlot chart will show altitude changes over time

Zweizeiliger Elementsatz

1 67163C 25303A 25352.76368056 .00675670 00000+0 10035-2 0 3528
2 67163 43.0044 61.8091 0007376 289.0013 237.2002 16.03146999 16
Epoch: 18. Dez. 2025 • Age: 44 hours

Aktueller Status

Höhe 263.4 km
Geschwindigkeit 7.75 km/s
Subsatellitenpunkt 2.23°N, 152.63°W
Startdatum 17. Dez. 2025
Alter 2 days
Typ internet

Technische Details

Klassifizierung Payload
Masse 575.00 kg
Trockenmasse 530.00 kg
Gesamtmasse 575.00 kg
Länge 0.30 m
Durchmesser 4.10 m
Spannweite 29.00 m
Form Box + pan
Hersteller SPXS
Bus-Typ Starlink V2MO
Phasenstatus In Orbit
Besitzer/Staat SPXS/US

Große Konstellationen

Loading constellations...